Location: Rockford
(40.2514°N, 96.6004°W)
Time: 01:26:41
(UTC+00:00)

Envisat - Visible Passes

Search period start: 21 September 2019 00:00
Search period end: 01 October 2019 00:00
Orbit: 764 x 766 km, 98.1° (Epoch: 20 September)

Date Brightness Start Highest point End Pass type
(mag) Time Alt. Az. Time Alt. Az. Time Alt. Az.
21 Sep 6.1 02:06:44 10° WSW 02:08:58 13° W 02:11:13 10° WNW visible
22 Sep 5.1 01:27:29 10° SSW 01:31:52 29° W 01:36:16 10° NW visible
23 Sep 3.5 00:49:55 10° S 00:54:57 66° WSW 01:00:02 10° NNW visible
24 Sep 5.9 01:54:24 10° SW 01:57:35 17° W 02:00:47 10° NW visible
25 Sep 4.7 01:15:52 10° SSW 01:20:32 37° W 01:25:15 10° NNW visible
26 Sep 3.1 00:38:37 10° SSE 00:43:41 84° WSW 00:48:48 10° NNW visible
27 Sep 5.6 01:42:26 10° SW 01:46:14 21° W 01:50:03 10° NW visible
28 Sep 4.2 01:04:22 10° S 01:09:14 47° W 01:14:09 10° NNW visible
29 Sep 6.2 02:10:20 10° WSW 02:12:01 11° W 02:13:42 10° WNW visible
30 Sep 5.2 01:30:38 10° SSW 01:34:53 27° W 01:39:09 10° NW visible
